DELTA 1 DEB, 10712

Orbit data source: Space-Track

DELTA 1 DEB, 10712 is space debris in SSO originally from a launch on Thu, 29 Jul 1976 UTC launched from the Air Force Western Test Range (AFWTR). Debris objects in space refer to the collection of defunct objects orbiting the Earth. Examples of debris include non-operational satellites, rocket bodies, and fragments generated from explosions, collisions, or faulty payload assembly.

Loading next visibility...
Identifier
10712, 1976-077AH
Orbit
SSO
Country
Flag of USUS
Related business
Manufacturer
Unknown
Mission
Spacecraft
Bus & Motor
Unknown
Mass
Unknown
Launch date (UTC)
1976-07-29 (49 years ago)
Launch vehicle
Unknown
Launch site
Air Force Western Test Range (AFWTR)
Object type
Payload
Rocket body
Debris
Shape & HBR
Unknown shape, 0.2 m
Radar Cross Section
Small (<0.1 m²)

Expand to show TLE details & history
Last TLE update: 19 hours ago

TLE from 19 hours ago
0 DELTA 1 DEB
1 10712U 76077AH  25340.73206184  .00001512  00000-0  11545-1 0  9999
2 10712 102.2225 108.6179 0068754  99.2211   7.0795 12.40149422223793
Epoch: 2025-12-06T17:34Z
TLE epoch observation values (Epoch: 2025-12-06T17:34:10.142Z)
Latitude
69.72487°
Longitude
-14.98325°
Altitude
1,464.052 km
Speed
7.161 km/s
True Right ascension
21h 37m 15s
True Declination
69° 37' 23"
Sunlit
Object was in daylight at epoch
Visualization orbit readout
Latitude
Unknown
Longitude
Unknown
Altitude
Unknown
Speed
Unknown
Apparent Right ascension
Unknown
Apparent Declination
Unknown
Sunlit
N/A
Visualization observer readout
Local Sidereal Time
10:15:17
Azimuth
Unknown
Elevation
Unknown
Doppler factor
Unknown
Orbital elements
Apogee altitude
1,557.747 km
Perigee altitude
1,449.368 km
Semi-major axis
7,881.695 km
Eccentricity
0.00688
Inclination
102.2225°
RAAN
108.6179°
Arg. of periapsis
99.2211°
True anomaly
7.17744°
Mean anomaly
7.0795°
Eccentric anomaly
7.12838°
Mean motion
3.1018 °/min
Orbital period
116.06 mins
BSTAR
0.011545
Loading maneuver chart data...
Computing Atmospheric mass density...
Loading historical data...
Loading historical data...
Loading historical data...
Loading historical data...
Loading historical data...
Loading historical data...
Loading historical data...

Documentation

Showing up to 5 results
|